Weather History for Broomfield, CO

Change the Weather History Date:

Sunday, December 15, 2013

  Actual Average Record
Temperature  
Mean Temperature 48 °F -  
Max Temperature 55 °F 42 °F 68 °F (2006)
Min Temperature 41 °F 23 °F -11 °F (2008)
Degree Days  
Heating Degree Days 17    
Moisture  
Dew Point 13 °F    
Average Humidity 26    
Maximum Humidity 36    
Minimum Humidity 16    
Precipitation  
Precipitation 0.00 in - - ()
Sea Level Pressure  
Sea Level Pressure 30.12 in    
Wind  
Wind Speed 22 mph (WNW)    
Max Wind Speed 43 mph    
Max Gust Speed 52 mph    
Visibility 11 miles    
Events      
Averages and records for this station are not official NWS values.
T = Trace of Precipitation, MM = Missing Value Source: NWS Daily Summary

Daily Weather History Graph

Daily Weather History Graph

Search for Another Location

Airport:

Trip Planner

Search our weather history database for the weather conditions in past years. The results will help you decide how hot, cold, wet, or windy it might be!

Date:

Astronomy

Dec. 15, 2013 Rise Set
Actual Time 7:15 AM MST 4:36 PM MST
Civil Twilight 6:44 AM MST 5:06 PM MST
Nautical Twilight 6:10 AM MST 5:40 PM MST
Astronomical Twilight 5:37 AM MST 6:13 PM MST
Moon 3:42 PM MST (12/15) 5:33 AM MST (12/15)
Length of Visible Light 10h 22m
Length of Day
9h 21m
Waxing Gibbous, 98% of the Moon is Illuminated
Dec 15
Waxing Gibbous
Dec 17
Full
Dec 25
Last Quarter
Jan 1
New
Jan 7
First Quarter

Hourly Weather History & Observations

Time (MST) Temp. Windchill Dew Point Humidity Pressure Visibility Wind Dir Wind Speed Gust Speed Precip Events Conditions
12:15 AM 41.0 °F 32.8 °F 14.0 °F 33% 30.14 in 10.0 mi WNW 16.1 mph 20.7 mph N/A   Clear
12:35 AM 41.0 °F 31.6 °F 14.0 °F 33% 30.13 in 10.0 mi WNW 20.7 mph 26.5 mph N/A   Clear
12:55 AM 41.0 °F 31.6 °F 14.0 °F 33% 30.14 in 10.0 mi West 20.7 mph 24.2 mph N/A   Clear
1:15 AM 42.8 °F 32.9 °F 14.0 °F 31% 30.12 in 10.0 mi WNW 26.5 mph 32.2 mph N/A   Clear
1:35 AM 42.8 °F 34.8 °F 14.0 °F 31% 30.13 in 10.0 mi WNW 17.3 mph 21.9 mph N/A   Clear
1:55 AM 42.8 °F 34.5 °F 14.0 °F 31% 30.13 in 10.0 mi WNW 18.4 mph 23.0 mph N/A   Clear
2:15 AM 42.8 °F 33.8 °F 14.0 °F 31% 30.14 in 10.0 mi WNW 21.9 mph 26.5 mph N/A   Clear
2:35 AM 42.8 °F 33.8 °F 14.0 °F 31% 30.14 in 10.0 mi NW 21.9 mph - N/A   Clear
2:54 AM 42.8 °F 34.3 °F 14.0 °F 31% 30.14 in 10.0 mi WNW 19.6 mph 33.4 mph N/A   Clear
3:15 AM 42.8 °F 33.3 °F 14.0 °F 31% 30.14 in 10.0 mi WNW 24.2 mph 33.4 mph N/A   Clear
3:35 AM 42.8 °F 33.3 °F 14.0 °F 31% 30.13 in 10.0 mi WNW 24.2 mph 34.5 mph N/A   Clear
3:55 AM 42.8 °F 34.3 °F 14.0 °F 31% 30.12 in 10.0 mi NW 19.6 mph 28.8 mph N/A   Clear
4:15 AM 41.0 °F 32.2 °F 15.8 °F 36% 30.12 in 10.0 mi NW 18.4 mph 27.6 mph N/A   Clear
4:35 AM 42.8 °F 34.8 °F 15.8 °F 34% 30.14 in 10.0 mi NW 17.3 mph 29.9 mph N/A   Clear
4:55 AM 42.8 °F 34.5 °F 17.6 °F 36% 30.14 in 10.0 mi West 18.4 mph 32.2 mph N/A   Clear
5:47 AM 42.8 °F 33.5 °F 15.8 °F 34% 30.14 in 50.0 mi West 23.0 mph 32.2 mph N/A   Scattered Clouds
6:52 AM 44.6 °F 35.9 °F 17.6 °F 34% 30.14 in 50.0 mi West 23.0 mph 32.2 mph N/A   Scattered Clouds
7:47 AM 44.6 °F 37.4 °F 15.8 °F 31% 30.13 in 50.0 mi West 16.1 mph 23.0 mph N/A   Scattered Clouds
8:47 AM 48.2 °F - 17.6 °F 30% 30.14 in 50.0 mi West 20.7 mph - N/A   Scattered Clouds
9:47 AM 50.0 °F - 15.8 °F 26% 30.16 in 50.0 mi NW 20.7 mph 24.2 mph N/A   Scattered Clouds
10:45 AM 53.6 °F - 15.8 °F 22% 30.15 in 30.0 mi West 24.2 mph 32.2 mph N/A   Scattered Clouds
11:45 AM 53.6 °F - 15.8 °F 22% 30.12 in 70.0 mi West 33.4 mph 42.6 mph N/A   Scattered Clouds
12:45 PM 55.4 °F - 12.2 °F 18% 30.09 in 70.0 mi West 28.8 mph 40.3 mph N/A   Scattered Clouds
1:45 PM 55.4 °F - 12.2 °F 18% 30.09 in 30.0 mi West 29.9 mph 40.3 mph N/A   Mostly Cloudy
2:45 PM 55.4 °F - 12.2 °F 18% 30.09 in 30.0 mi West 33.4 mph 44.9 mph N/A   Scattered Clouds
3:53 PM 53.6 °F - 12.2 °F 19% 30.06 in 30.0 mi West 42.6 mph 51.8 mph N/A   Scattered Clouds
4:53 PM 51.8 °F - 10.4 °F 19% 30.07 in 30.0 mi West 29.9 mph 43.7 mph N/A   Scattered Clouds
5:49 PM 53.6 °F - 8.6 °F 16% 30.08 in 30.0 mi West 31.1 mph 46.0 mph N/A   Scattered Clouds
6:49 PM 50.0 °F - 12.2 °F 22% 30.12 in 30.0 mi West 26.5 mph 38.0 mph N/A   Scattered Clouds
7:53 PM 51.8 °F - 12.2 °F 21% 30.11 in 20.0 mi WSW 39.1 mph 51.8 mph N/A   Scattered Clouds
8:53 PM 50.0 °F - 12.2 °F 22% 30.12 in 20.0 mi West 29.9 mph 49.5 mph N/A   Scattered Clouds
9:48 PM 50.0 °F - 8.6 °F 19% 30.13 in 20.0 mi WNW 17.3 mph 32.2 mph N/A   Scattered Clouds
10:15 PM 51.8 °F - 8.6 °F 18% 30.13 in 10.0 mi NW 21.9 mph 26.5 mph N/A   Clear
10:35 PM 51.8 °F - 10.4 °F 19% 30.12 in 10.0 mi NW 13.8 mph 21.9 mph N/A   Clear
10:55 PM 50.0 °F - 10.4 °F 20% 30.12 in 10.0 mi NW 8.1 mph 29.9 mph N/A   Clear
11:15 PM 51.8 °F - 12.2 °F 21% 30.13 in 10.0 mi NW 15.0 mph 18.4 mph N/A   Clear
11:35 PM 51.8 °F - 12.2 °F 21% 30.12 in 10.0 mi WNW 23.0 mph 34.5 mph N/A   Clear
11:55 PM 51.8 °F - 12.2 °F 21% 30.12 in 10.0 mi WNW 27.6 mph 46.0 mph N/A   Clear